Voltar ao catálogo

FSKL5695-11

AtivoRádio AmadorSSO
NORAD 64888·PAYLOAD·🇷🇺 Russia
Este nome de satélite ainda não foi confirmado por fontes oficiais.

Lançado Jul 25, 2025 de Vostochny Cosmodrome

Loading…

Próximas Passagens (próximas 24 horas)

TLE

AtualizadoSource: Space-Track

Época: Sep 14, 2026, 21:38 UTC

1 64888U 25155N   26257.90207504  .00040711  00000-0  79367-3 0  9999
2 64888  97.4558 231.1264 0005994 161.7689 198.3777 15.47400442 94789

Acompanhe FSKL5695-11 em tempo real com AllMySat

Download on the App Store